Terug naar catalogus

ATLAS 5 CENTAUR DEB

LostHEO
NORAD 57587·DEBRIS·🇺🇸 United States

Gelanceerd Oct 17, 2018 vanaf Cape Canaveral Space Force Station

Loading…

Volgende Passages (komende 24 uur)

TLE

VerouderdSource: Space-Track

Epoch: May 22, 2026, 19:34 UTC

1 57587U 18079HN  26142.81571755 -.00000087  00000-0  00000-0 0  9997
2 57587  13.5868  43.5966 4690067 291.9532  25.4941  1.77530108 22192

Volg ATLAS 5 CENTAUR DEB in realtime met AllMySat

Download on the App Store